DLH2FL LGAV-EDDM

Flight info

Callsign DLH2FL
Flight time 2h 13m
Altitude 34000
Route KOR UL613 XANIS DCT DIMIS DCT PETAK DCT GLOMY DCT ELTIB DCT GORPA DCT BERTA DCT RASTA DCT REDBU Q112 NAPSA NAPSA1B
Aircraft A321/M-SDE3FGHIRWY/LB1

Departure

Time 2026-05-05 17:20
Airport Athens Eleftherios Venizelos International Airport (LGAV)

Arrival

Time 2026-05-05 19:33
Airport Munich Airport (EDDM)
Time Latitude Longitude Altitude Speed Heading
2026-05-05 16:42 37.93601 23.94847 301 ft 0 kts 306°
2026-05-05 17:10 37.93587 23.94873 301 ft 4 kts 298°
2026-05-05 17:10 37.93577 23.94904 301 ft 4 kts 281°
2026-05-05 17:10 37.93577 23.94934 300 ft 4 kts 236°
2026-05-05 17:11 37.93585 23.94945 300 ft 1 kts 217°
2026-05-05 17:11 37.93586 23.94946 304 ft 0 kts 217°
2026-05-05 17:14 37.93581 23.94942 300 ft 1 kts 217°
2026-05-05 17:14 37.93557 23.94918 302 ft 8 kts 217°
2026-05-05 17:15 37.93499 23.94864 301 ft 11 kts 217°
2026-05-05 17:15 37.93437 23.94883 300 ft 11 kts 125°
2026-05-05 17:15 37.93387 23.94976 300 ft 14 kts 132°
2026-05-05 17:15 37.93305 23.94954 300 ft 13 kts 218°
2026-05-05 17:16 37.93224 23.94878 302 ft 16 kts 217°
2026-05-05 17:16 37.93132 23.94791 301 ft 17 kts 217°
2026-05-05 17:16 37.93040 23.94703 300 ft 17 kts 217°
2026-05-05 17:16 37.92945 23.94613 302 ft 18 kts 217°
2026-05-05 17:17 37.92841 23.94514 303 ft 19 kts 217°
2026-05-05 17:17 37.92735 23.94413 303 ft 19 kts 217°
2026-05-05 17:17 37.92633 23.94316 303 ft 14 kts 217°
2026-05-05 17:17 37.92561 23.94287 305 ft 10 kts 148°
2026-05-05 17:18 37.92515 23.94363 308 ft 11 kts 126°
2026-05-05 17:18 37.92479 23.94441 311 ft 9 kts 91°
2026-05-05 17:18 37.92503 23.94474 309 ft 0 kts 35°
2026-05-05 17:18 37.92504 23.94474 309 ft 2 kts 35°
2026-05-05 17:19 37.92657 23.94617 306 ft 62 kts 37°
2026-05-05 17:19 37.93184 23.95117 295 ft 125 kts 37°
2026-05-05 17:19 37.94024 23.95916 282 ft 174 kts 37°
2026-05-05 17:19 37.95042 23.96891 743 ft 180 kts 38°
2026-05-05 17:20 37.96033 23.97851 1471 ft 179 kts 37°
2026-05-05 17:20 37.97049 23.98820 1897 ft 190 kts 37°
2026-05-05 17:20 37.98147 23.99878 2164 ft 206 kts 37°
2026-05-05 17:20 37.99332 24.01017 2413 ft 222 kts 37°
2026-05-05 17:21 38.00623 24.02256 2577 ft 243 kts 36°
2026-05-05 17:21 38.01982 24.03557 3200 ft 245 kts 36°
2026-05-05 17:21 38.03340 24.04849 3893 ft 245 kts 35°
2026-05-05 17:22 38.06073 24.07464 5290 ft 246 kts 33°
2026-05-05 17:22 38.07500 24.08691 5749 ft 254 kts 19°
2026-05-05 17:22 38.09239 24.09044 6228 ft 257 kts 352°
2026-05-05 17:22 38.10921 24.08321 6810 ft 259 kts 327°
2026-05-05 17:23 38.12166 24.06659 7380 ft 266 kts 300°
2026-05-05 17:23 38.12646 24.04368 7953 ft 276 kts 275°
2026-05-05 17:23 38.12654 24.01909 8552 ft 280 kts 273°
2026-05-05 17:23 38.12644 23.99421 9152 ft 283 kts 273°
2026-05-05 17:24 38.12633 23.96907 9759 ft 286 kts 274°
2026-05-05 17:24 38.12624 23.94363 10268 ft 292 kts 274°
2026-05-05 17:24 38.12620 23.91699 10393 ft 312 kts 274°
2026-05-05 17:24 38.12618 23.88864 10518 ft 330 kts 273°
2026-05-05 17:25 38.12615 23.85877 10642 ft 346 kts 273°
2026-05-05 17:25 38.12612 23.83830 10830 ft 353 kts 273°
2026-05-05 17:25 38.12602 23.79620 11453 ft 359 kts 273°
2026-05-05 17:25 38.12592 23.76492 11940 ft 362 kts 273°
2026-05-05 17:26 38.12582 23.73281 12451 ft 364 kts 273°
2026-05-05 17:26 38.12570 23.70057 12974 ft 367 kts 273°
2026-05-05 17:26 38.12558 23.66805 13454 ft 370 kts 272°
2026-05-05 17:26 38.12545 23.63523 13950 ft 373 kts 273°
2026-05-05 17:27 38.12531 23.60219 14408 ft 375 kts 273°
2026-05-05 17:27 38.12517 23.56896 14893 ft 377 kts 273°
2026-05-05 17:27 38.12504 23.53565 15379 ft 378 kts 273°
2026-05-05 17:27 38.12490 23.50215 15866 ft 380 kts 273°
2026-05-05 17:28 38.12474 23.46859 16365 ft 381 kts 273°
2026-05-05 17:28 38.12455 23.43485 16869 ft 383 kts 273°
2026-05-05 17:28 38.12436 23.40103 17345 ft 383 kts 273°
2026-05-05 17:28 38.12416 23.36709 17793 ft 384 kts 273°
2026-05-05 17:29 38.12399 23.33311 18234 ft 386 kts 273°
2026-05-05 17:29 38.12381 23.29894 18634 ft 387 kts 274°
2026-05-05 17:29 38.12362 23.26477 19014 ft 388 kts 273°
2026-05-05 17:29 38.12340 23.23033 19376 ft 390 kts 273°
2026-05-05 17:30 38.12314 23.19566 19734 ft 392 kts 273°
2026-05-05 17:30 38.12288 23.16111 20121 ft 393 kts 274°
2026-05-05 17:30 38.12263 23.12639 20492 ft 393 kts 274°
2026-05-05 17:30 38.12238 23.09161 20873 ft 394 kts 273°
2026-05-05 17:31 38.12210 23.05673 21241 ft 395 kts 273°
2026-05-05 17:31 38.12179 23.02221 21598 ft 397 kts 273°
2026-05-05 17:31 38.12145 22.98716 21957 ft 398 kts 273°
2026-05-05 17:31 38.12110 22.95195 22318 ft 399 kts 273°
2026-05-05 17:32 38.12076 22.91661 22668 ft 401 kts 273°
2026-05-05 17:32 38.12263 22.88162 23001 ft 396 kts 285°
2026-05-05 17:32 38.13193 22.84893 23321 ft 392 kts 301°
2026-05-05 17:32 38.14818 22.82134 23633 ft 391 kts 316°
2026-05-05 17:33 38.16847 22.79826 23906 ft 392 kts 319°
2026-05-05 17:33 38.18901 22.77540 24174 ft 393 kts 319°
2026-05-05 17:33 38.20967 22.75244 24458 ft 395 kts 319°
2026-05-05 17:33 38.23037 22.72940 24723 ft 396 kts 319°
2026-05-05 17:34 38.25110 22.70626 25012 ft 397 kts 319°
2026-05-05 17:34 38.27193 22.68298 25298 ft 398 kts 319°
2026-05-05 17:34 38.29278 22.65974 25583 ft 399 kts 319°
2026-05-05 17:34 38.31366 22.63642 25867 ft 400 kts 319°
2026-05-05 17:35 38.33456 22.61299 26149 ft 401 kts 318°
2026-05-05 17:35 38.35548 22.58948 26424 ft 402 kts 319°
2026-05-05 17:35 38.37644 22.56591 26686 ft 402 kts 318°
2026-05-05 17:35 38.39743 22.54227 26935 ft 403 kts 318°
2026-05-05 17:36 38.41849 22.51852 27192 ft 404 kts 318°
2026-05-05 17:36 38.43956 22.49475 27448 ft 405 kts 318°
2026-05-05 17:36 38.46067 22.47094 27702 ft 406 kts 318°
2026-05-05 17:36 38.48185 22.44704 27941 ft 407 kts 318°
2026-05-05 17:37 38.50305 22.42313 28172 ft 408 kts 318°
2026-05-05 17:37 38.51716 22.40722 28317 ft 408 kts 318°
2026-05-05 17:37 38.54564 22.37509 28573 ft 409 kts 318°
2026-05-05 17:37 38.56697 22.35100 28757 ft 410 kts 318°
2026-05-05 17:38 38.58835 22.32685 28927 ft 410 kts 318°
2026-05-05 17:38 38.60967 22.30272 29158 ft 409 kts 318°
2026-05-05 17:38 38.63093 22.27857 29386 ft 408 kts 318°
2026-05-05 17:38 38.65184 22.25475 29639 ft 407 kts 318°
2026-05-05 17:39 38.67295 22.23072 29914 ft 406 kts 318°
2026-05-05 17:39 38.69404 22.20675 30209 ft 405 kts 318°
2026-05-05 17:39 38.71502 22.18289 30447 ft 403 kts 318°
2026-05-05 17:39 38.73597 22.15899 30655 ft 402 kts 318°
2026-05-05 17:40 38.75682 22.13518 30917 ft 401 kts 318°
2026-05-05 17:40 38.77764 22.11144 31104 ft 401 kts 318°
2026-05-05 17:40 38.79846 22.08768 31326 ft 400 kts 318°
2026-05-05 17:40 38.81924 22.06396 31578 ft 399 kts 318°
2026-05-05 17:41 38.83992 22.04035 31822 ft 398 kts 318°
2026-05-05 17:41 38.86057 22.01674 32056 ft 396 kts 318°
2026-05-05 17:41 38.88114 21.99323 32302 ft 395 kts 318°
2026-05-05 17:41 38.90159 21.96983 32537 ft 394 kts 318°
2026-05-05 17:42 38.92205 21.94637 32762 ft 393 kts 318°
2026-05-05 17:42 38.94238 21.92304 32992 ft 392 kts 319°
2026-05-05 17:42 38.96271 21.89971 33179 ft 392 kts 319°
2026-05-05 17:42 38.98300 21.87640 33405 ft 390 kts 319°
2026-05-05 17:43 39.00320 21.85315 33639 ft 389 kts 319°
2026-05-05 17:43 39.02330 21.82999 33889 ft 387 kts 319°
2026-05-05 17:43 39.04334 21.80684 34072 ft 387 kts 319°
2026-05-05 17:44 39.08328 21.76066 34113 ft 386 kts 318°
2026-05-05 17:44 39.12325 21.71442 34103 ft 386 kts 318°
2026-05-05 17:45 39.16294 21.66849 34102 ft 386 kts 318°
2026-05-05 17:45 39.20314 21.62178 34090 ft 386 kts 318°
2026-05-05 17:46 39.24272 21.57579 34084 ft 385 kts 318°
2026-05-05 17:46 39.28257 21.52948 34097 ft 386 kts 318°
2026-05-05 17:47 39.31598 21.49057 34104 ft 387 kts 317°
2026-05-05 17:47 39.35582 21.44403 34110 ft 386 kts 317°
2026-05-05 17:48 39.39555 21.39752 34126 ft 385 kts 317°
2026-05-05 17:48 39.43501 21.35130 34128 ft 386 kts 318°
2026-05-05 17:49 39.47487 21.30462 34126 ft 386 kts 318°
2026-05-05 17:49 39.51464 21.25799 34144 ft 386 kts 317°
2026-05-05 17:50 39.55441 21.21127 34148 ft 386 kts 317°
2026-05-05 17:50 39.59416 21.16446 34162 ft 386 kts 317°
2026-05-05 17:51 39.63380 21.11766 34154 ft 385 kts 317°
2026-05-05 17:51 39.67336 21.07074 34153 ft 386 kts 317°
2026-05-05 17:52 39.71307 21.02375 34156 ft 386 kts 317°
2026-05-05 17:52 39.75276 20.97676 34152 ft 386 kts 317°
2026-05-05 17:53 39.79241 20.92965 34152 ft 386 kts 317°
2026-05-05 17:53 39.83205 20.88252 34152 ft 386 kts 317°
2026-05-05 17:54 39.87169 20.83526 34151 ft 386 kts 316°
2026-05-05 17:54 39.91130 20.78796 34141 ft 387 kts 316°
2026-05-05 17:55 39.95078 20.74086 34141 ft 388 kts 316°
2026-05-05 17:55 39.99059 20.69317 34133 ft 388 kts 316°
2026-05-05 17:56 40.03037 20.64542 34140 ft 389 kts 316°
2026-05-05 17:56 40.07062 20.59829 34141 ft 390 kts 322°
2026-05-05 17:57 40.11742 20.56204 34141 ft 392 kts 328°
2026-05-05 17:57 40.16497 20.52729 34151 ft 392 kts 327°
2026-05-05 17:58 40.21248 20.49239 34149 ft 392 kts 328°
2026-05-05 17:58 40.26004 20.45738 34136 ft 392 kts 327°
2026-05-05 17:59 40.30762 20.42235 34130 ft 392 kts 328°
2026-05-05 17:59 40.35521 20.38727 34133 ft 394 kts 327°
2026-05-05 18:00 40.40302 20.35210 34142 ft 394 kts 327°
2026-05-05 18:00 40.45039 20.31708 34149 ft 393 kts 327°
2026-05-05 18:01 40.49810 20.28172 34146 ft 393 kts 327°
2026-05-05 18:01 40.54571 20.24634 34138 ft 393 kts 328°
2026-05-05 18:02 40.59338 20.21097 34146 ft 394 kts 327°
2026-05-05 18:02 40.64111 20.17551 34153 ft 394 kts 326°
2026-05-05 18:03 40.68882 20.13998 34150 ft 394 kts 326°
2026-05-05 18:03 40.73663 20.10429 34132 ft 395 kts 327°
2026-05-05 18:04 40.78447 20.06849 34118 ft 396 kts 326°
2026-05-05 18:04 40.83238 20.03257 34122 ft 396 kts 326°
2026-05-05 18:05 40.88035 19.99660 34133 ft 397 kts 326°
2026-05-05 18:05 40.92838 19.96056 34131 ft 397 kts 326°
2026-05-05 18:06 40.97613 19.92458 34121 ft 398 kts 326°
2026-05-05 18:06 41.02423 19.88839 34124 ft 398 kts 326°
2026-05-05 18:07 41.07232 19.85200 34127 ft 398 kts 326°
2026-05-05 18:07 41.12029 19.81561 34133 ft 398 kts 326°
2026-05-05 18:08 41.16852 19.77915 34122 ft 399 kts 326°
2026-05-05 18:08 41.21673 19.74259 34112 ft 400 kts 326°
2026-05-05 18:09 41.26508 19.70587 34120 ft 400 kts 326°
2026-05-05 18:09 41.31339 19.66902 34126 ft 401 kts 325°
2026-05-05 18:10 41.36181 19.63210 34114 ft 402 kts 325°
2026-05-05 18:10 41.41029 19.59505 34116 ft 402 kts 325°
2026-05-05 18:11 41.45881 19.55792 34119 ft 402 kts 325°
2026-05-05 18:11 41.50722 19.52062 34116 ft 402 kts 325°
2026-05-05 18:12 41.55568 19.48336 34131 ft 402 kts 326°
2026-05-05 18:12 41.60400 19.44638 34105 ft 404 kts 326°
2026-05-05 18:13 41.65271 19.40880 34095 ft 405 kts 326°
2026-05-05 18:13 41.70160 19.37104 34094 ft 406 kts 326°
2026-05-05 18:14 41.75057 19.33316 34098 ft 407 kts 326°
2026-05-05 18:14 41.79912 19.29425 34102 ft 406 kts 323°
2026-05-05 18:15 41.84619 19.25209 34092 ft 407 kts 322°
2026-05-05 18:15 41.89291 19.20903 34093 ft 408 kts 322°
2026-05-05 18:16 41.93994 19.16629 34095 ft 409 kts 322°
2026-05-05 18:16 41.98722 19.12373 34096 ft 409 kts 323°
2026-05-05 18:17 42.03462 19.08123 34095 ft 410 kts 323°
2026-05-05 18:17 42.08210 19.03845 34089 ft 411 kts 323°
2026-05-05 18:18 42.12965 18.99540 34092 ft 412 kts 322°
2026-05-05 18:18 42.17726 18.95231 34095 ft 412 kts 322°
2026-05-05 18:19 42.22487 18.90909 34098 ft 413 kts 322°
2026-05-05 18:19 42.27249 18.86577 34109 ft 413 kts 322°
2026-05-05 18:20 42.31975 18.82264 34111 ft 413 kts 322°
2026-05-05 18:20 42.36737 18.77913 34113 ft 413 kts 322°
2026-05-05 18:21 42.41504 18.73559 34091 ft 414 kts 322°
2026-05-05 18:21 42.46286 18.69195 34090 ft 415 kts 322°
2026-05-05 18:22 42.51064 18.64804 34098 ft 415 kts 323°
2026-05-05 18:22 42.55840 18.60406 34098 ft 415 kts 322°
2026-05-05 18:23 42.60630 18.55995 34100 ft 416 kts 322°
2026-05-05 18:23 42.65416 18.51579 34104 ft 416 kts 322°
2026-05-05 18:24 42.70200 18.47146 34102 ft 416 kts 322°
2026-05-05 18:24 42.74991 18.42707 34112 ft 417 kts 322°
2026-05-05 18:25 42.79754 18.38294 34095 ft 417 kts 322°
2026-05-05 18:25 42.84553 18.33836 34096 ft 418 kts 322°
2026-05-05 18:26 42.89361 18.29354 34101 ft 419 kts 322°
2026-05-05 18:26 42.94169 18.24868 34106 ft 419 kts 322°
2026-05-05 18:27 42.98978 18.20369 34113 ft 419 kts 322°
2026-05-05 18:27 43.03790 18.15859 34111 ft 420 kts 322°
2026-05-05 18:28 43.11011 18.09076 34110 ft 420 kts 322°
2026-05-05 18:28 43.15827 18.04554 34109 ft 420 kts 322°
2026-05-05 18:29 43.20646 18.00009 34112 ft 420 kts 322°
2026-05-05 18:29 43.25466 17.95456 34106 ft 421 kts 322°
2026-05-05 18:30 43.30278 17.90902 34105 ft 420 kts 322°
2026-05-05 18:30 43.35084 17.86329 34104 ft 420 kts 322°
2026-05-05 18:31 43.39891 17.81752 34103 ft 420 kts 322°
2026-05-05 18:31 43.44661 17.77201 34110 ft 420 kts 322°
2026-05-05 18:32 43.49498 17.72586 34107 ft 420 kts 322°
2026-05-05 18:32 43.54272 17.68021 34105 ft 421 kts 322°
2026-05-05 18:33 43.59020 17.63222 34107 ft 420 kts 319°
2026-05-05 18:33 43.63500 17.58141 34115 ft 420 kts 317°
2026-05-05 18:34 43.67965 17.52947 34115 ft 420 kts 317°
2026-05-05 18:34 43.72474 17.47809 34113 ft 420 kts 317°
2026-05-05 18:35 43.77006 17.42701 34114 ft 420 kts 317°
2026-05-05 18:35 43.81542 17.37595 34114 ft 421 kts 317°
2026-05-05 18:36 43.86069 17.32458 34113 ft 420 kts 317°
2026-05-05 18:36 43.90587 17.27313 34115 ft 421 kts 317°
2026-05-05 18:37 43.95111 17.22161 34106 ft 421 kts 317°
2026-05-05 18:37 43.99633 17.16996 34104 ft 421 kts 317°
2026-05-05 18:38 44.04151 17.11824 34100 ft 421 kts 317°
2026-05-05 18:38 44.08678 17.06644 34097 ft 421 kts 317°
2026-05-05 18:39 44.12439 17.02330 34107 ft 422 kts 317°
2026-05-05 18:39 44.16967 16.97126 34096 ft 422 kts 317°
2026-05-05 18:40 44.21500 16.91904 34087 ft 423 kts 317°
2026-05-05 18:40 44.26027 16.86672 34088 ft 423 kts 317°
2026-05-05 18:41 44.30581 16.81451 34078 ft 425 kts 320°
2026-05-05 18:41 44.35446 16.76735 34091 ft 426 kts 322°
2026-05-05 18:42 44.40324 16.72023 34071 ft 426 kts 322°
2026-05-05 18:42 44.45200 16.67294 34069 ft 427 kts 321°
2026-05-05 18:43 44.50041 16.62581 34064 ft 427 kts 321°
2026-05-05 18:43 44.54915 16.57841 34057 ft 427 kts 321°
2026-05-05 18:44 44.59790 16.53085 34055 ft 427 kts 321°
2026-05-05 18:44 44.64674 16.48308 34047 ft 428 kts 321°
2026-05-05 18:45 44.69561 16.43523 34046 ft 429 kts 321°
2026-05-05 18:45 44.74452 16.38727 34042 ft 428 kts 321°
2026-05-05 18:46 44.79336 16.33912 34045 ft 428 kts 321°
2026-05-05 18:46 44.84219 16.29095 34030 ft 429 kts 321°
2026-05-05 18:47 44.89116 16.24261 34028 ft 430 kts 321°
2026-05-05 18:47 44.94021 16.19414 34037 ft 430 kts 321°
2026-05-05 18:48 44.98909 16.14550 34032 ft 430 kts 321°
2026-05-05 18:48 45.03810 16.09670 34040 ft 431 kts 321°
2026-05-05 18:49 45.08723 16.04783 34027 ft 432 kts 321°
2026-05-05 18:49 45.13647 15.99881 34020 ft 433 kts 321°
2026-05-05 18:50 45.18568 15.94952 34020 ft 433 kts 321°
2026-05-05 18:50 45.23488 15.90008 34009 ft 434 kts 321°
2026-05-05 18:51 45.28387 15.85091 34022 ft 434 kts 321°
2026-05-05 18:51 45.33327 15.80129 34012 ft 435 kts 321°
2026-05-05 18:52 45.38266 15.75151 34014 ft 435 kts 321°
2026-05-05 18:52 45.43203 15.70151 34018 ft 436 kts 321°
2026-05-05 18:53 45.48141 15.65137 34017 ft 436 kts 321°
2026-05-05 18:53 45.53079 15.60114 34018 ft 436 kts 321°
2026-05-05 18:54 45.58025 15.55072 34014 ft 437 kts 321°
2026-05-05 18:54 45.62974 15.50023 34007 ft 437 kts 321°
2026-05-05 18:55 45.67920 15.44969 34002 ft 437 kts 321°
2026-05-05 18:55 45.72863 15.39899 33994 ft 437 kts 321°
2026-05-05 18:56 45.77805 15.34804 33999 ft 437 kts 320°
2026-05-05 18:56 45.82708 15.29645 34000 ft 437 kts 320°
2026-05-05 18:57 45.87580 15.24436 34004 ft 437 kts 320°
2026-05-05 18:57 45.92453 15.19232 34002 ft 437 kts 320°
2026-05-05 18:58 45.97330 15.14024 34009 ft 437 kts 320°
2026-05-05 18:58 46.02218 15.08789 33992 ft 438 kts 320°
2026-05-05 18:59 46.07103 15.03550 33991 ft 438 kts 320°
2026-05-05 18:59 46.11993 14.98292 33986 ft 438 kts 320°
2026-05-05 19:00 46.16881 14.93019 33993 ft 439 kts 320°
2026-05-05 19:00 46.21740 14.87780 34013 ft 439 kts 319°
2026-05-05 19:01 46.26620 14.82488 34011 ft 439 kts 319°
2026-05-05 19:01 46.31515 14.77189 34012 ft 439 kts 319°
2026-05-05 19:02 46.36402 14.71885 34007 ft 439 kts 319°
2026-05-05 19:02 46.41285 14.66561 33994 ft 439 kts 319°
2026-05-05 19:03 46.46153 14.61217 34003 ft 439 kts 318°
2026-05-05 19:03 46.50947 14.55704 33977 ft 440 kts 317°
2026-05-05 19:04 46.55700 14.50092 33961 ft 441 kts 317°
2026-05-05 19:04 46.60470 14.44481 33960 ft 442 kts 317°
2026-05-05 19:05 46.65264 14.38873 33964 ft 442 kts 317°
2026-05-05 19:05 46.70023 14.33308 33991 ft 442 kts 317°
2026-05-05 19:06 46.74816 14.27686 33977 ft 442 kts 317°
2026-05-05 19:06 46.79600 14.22044 33969 ft 442 kts 317°
2026-05-05 19:07 46.84387 14.16393 33958 ft 442 kts 317°
2026-05-05 19:07 46.89177 14.10734 33955 ft 443 kts 317°
2026-05-05 19:08 46.93956 14.05067 33939 ft 442 kts 317°
2026-05-05 19:08 46.98732 13.99388 33955 ft 442 kts 317°
2026-05-05 19:09 47.03498 13.93708 33942 ft 442 kts 316°
2026-05-05 19:09 47.08262 13.88010 33943 ft 442 kts 316°
2026-05-05 19:10 47.13021 13.82316 33939 ft 441 kts 316°
2026-05-05 19:10 47.17794 13.76603 33927 ft 442 kts 316°
2026-05-05 19:11 47.20142 13.73783 33712 ft 440 kts 316°
2026-05-05 19:11 47.22512 13.70924 32928 ft 442 kts 316°
2026-05-05 19:11 47.24897 13.68041 32058 ft 445 kts 316°
2026-05-05 19:11 47.27293 13.65150 31333 ft 446 kts 316°
2026-05-05 19:12 47.29688 13.62267 30778 ft 443 kts 316°
2026-05-05 19:12 47.32062 13.59405 30222 ft 440 kts 316°
2026-05-05 19:12 47.34418 13.56558 29616 ft 437 kts 316°
2026-05-05 19:12 47.36758 13.53721 28981 ft 433 kts 316°
2026-05-05 19:13 47.39078 13.50903 28384 ft 429 kts 316°
2026-05-05 19:13 47.41371 13.48117 27799 ft 426 kts 316°
2026-05-05 19:13 47.43652 13.45347 27228 ft 422 kts 316°
2026-05-05 19:13 47.45915 13.42598 26665 ft 420 kts 316°
2026-05-05 19:14 47.48160 13.39864 26097 ft 417 kts 316°
2026-05-05 19:14 47.50388 13.37144 25551 ft 414 kts 316°
2026-05-05 19:14 47.52599 13.34448 25035 ft 411 kts 316°
2026-05-05 19:14 47.54801 13.31771 24492 ft 408 kts 316°
2026-05-05 19:15 47.56987 13.29120 23983 ft 405 kts 316°
2026-05-05 19:15 47.59161 13.26488 23508 ft 401 kts 316°
2026-05-05 19:15 47.61312 13.23883 22825 ft 397 kts 316°
2026-05-05 19:15 47.63437 13.21302 22162 ft 393 kts 316°
2026-05-05 19:16 47.65536 13.18745 21537 ft 388 kts 316°
2026-05-05 19:16 47.67606 13.16216 20934 ft 384 kts 316°
2026-05-05 19:16 47.69634 13.13739 20302 ft 381 kts 317°
2026-05-05 19:16 47.71677 13.11245 19648 ft 379 kts 317°
2026-05-05 19:17 47.73702 13.08767 19083 ft 376 kts 317°
2026-05-05 19:17 47.75713 13.06304 18594 ft 373 kts 317°
2026-05-05 19:17 47.77708 13.03865 18101 ft 370 kts 317°
2026-05-05 19:17 47.79683 13.01447 17549 ft 367 kts 317°
2026-05-05 19:18 47.81645 12.99040 17042 ft 363 kts 317°
2026-05-05 19:18 47.83585 12.96659 16514 ft 360 kts 317°
2026-05-05 19:18 47.85509 12.94288 15997 ft 357 kts 317°
2026-05-05 19:18 47.87411 12.91939 15489 ft 354 kts 317°
2026-05-05 19:19 47.89300 12.89605 14997 ft 351 kts 317°
2026-05-05 19:19 47.91172 12.87290 14491 ft 348 kts 318°
2026-05-05 19:19 47.93025 12.84997 14008 ft 346 kts 318°
2026-05-05 19:19 47.94865 12.82714 13478 ft 344 kts 317°
2026-05-05 19:20 47.96699 12.80439 12942 ft 341 kts 318°
2026-05-05 19:20 47.98519 12.78166 12393 ft 339 kts 317°
2026-05-05 19:20 48.00320 12.75917 11869 ft 336 kts 317°
2026-05-05 19:20 48.02109 12.73693 11336 ft 334 kts 317°
2026-05-05 19:21 48.03893 12.71486 10916 ft 330 kts 317°
2026-05-05 19:21 48.05666 12.69298 10814 ft 331 kts 317°
2026-05-05 19:21 48.07447 12.67100 10844 ft 333 kts 317°
2026-05-05 19:21 48.09233 12.64895 10841 ft 333 kts 317°
2026-05-05 19:22 48.11021 12.62687 10831 ft 333 kts 317°
2026-05-05 19:22 48.12807 12.60479 10827 ft 333 kts 317°
2026-05-05 19:22 48.14586 12.58278 10561 ft 330 kts 317°
2026-05-05 19:22 48.16350 12.56102 10161 ft 324 kts 317°
2026-05-05 19:23 48.18054 12.54012 10039 ft 307 kts 317°
2026-05-05 19:23 48.19666 12.52045 9770 ft 293 kts 317°
2026-05-05 19:23 48.21235 12.50139 9292 ft 289 kts 317°
2026-05-05 19:23 48.22787 12.48246 8868 ft 286 kts 317°
2026-05-05 19:24 48.24322 12.46365 8517 ft 284 kts 317°
2026-05-05 19:24 48.25841 12.44496 8140 ft 281 kts 317°
2026-05-05 19:24 48.27346 12.42638 7763 ft 279 kts 317°
2026-05-05 19:24 48.28823 12.40761 7388 ft 276 kts 311°
2026-05-05 19:25 48.29898 12.38444 7028 ft 270 kts 296°
2026-05-05 19:25 48.30764 12.35954 6667 ft 268 kts 295°
2026-05-05 19:25 48.31599 12.33455 6317 ft 266 kts 295°
2026-05-05 19:25 48.32418 12.30967 5950 ft 265 kts 295°
2026-05-05 19:26 48.33223 12.28490 5601 ft 262 kts 295°
2026-05-05 19:26 48.34015 12.26037 5242 ft 260 kts 295°
2026-05-05 19:26 48.34786 12.23620 4898 ft 257 kts 295°
2026-05-05 19:26 48.35547 12.21205 4642 ft 252 kts 295°
2026-05-05 19:27 48.36280 12.18872 4526 ft 241 kts 295°
2026-05-05 19:27 48.36740 12.17381 4441 ft 233 kts 292°
2026-05-05 19:27 48.37057 12.15085 4262 ft 221 kts 269°
2026-05-05 19:27 48.36910 12.12800 4009 ft 219 kts 265°
2026-05-05 19:28 48.36734 12.10518 4008 ft 220 kts 264°
2026-05-05 19:28 48.36563 12.08237 4006 ft 217 kts 265°
2026-05-05 19:28 48.36402 12.06075 4001 ft 199 kts 265°
2026-05-05 19:28 48.36256 12.04115 4008 ft 179 kts 265°
2026-05-05 19:29 48.36124 12.02334 4005 ft 165 kts 265°
2026-05-05 19:29 48.35998 12.00641 3999 ft 163 kts 265°
2026-05-05 19:29 48.35871 11.98922 3859 ft 167 kts 265°
2026-05-05 19:29 48.35742 11.97193 3686 ft 166 kts 265°
2026-05-05 19:30 48.35613 11.95472 3492 ft 163 kts 265°
2026-05-05 19:30 48.35489 11.93838 3356 ft 154 kts 265°
2026-05-05 19:30 48.35372 11.92232 3075 ft 152 kts 265°
2026-05-05 19:30 48.35254 11.90681 2870 ft 146 kts 265°
2026-05-05 19:31 48.35140 11.89176 2665 ft 144 kts 265°
2026-05-05 19:31 48.35027 11.87686 2483 ft 143 kts 265°
2026-05-05 19:31 48.34915 11.86203 2285 ft 144 kts 264°
2026-05-05 19:31 48.34800 11.84691 2091 ft 145 kts 264°
2026-05-05 19:32 48.34684 11.83193 1877 ft 144 kts 263°
2026-05-05 19:32 48.34574 11.81703 1694 ft 144 kts 263°
2026-05-05 19:32 48.34463 11.80213 1504 ft 142 kts 264°
2026-05-05 19:32 48.34361 11.78890 1476 ft 107 kts 263°
2026-05-05 19:33 48.34305 11.78154 1485 ft 33 kts 272°
2026-05-05 19:33 48.34356 11.77852 1477 ft 29 kts 295°
2026-05-05 19:33 48.34428 11.77603 1479 ft 14 kts 291°
2026-05-05 19:33 48.34447 11.77536 1481 ft 0 kts 293°
2026-05-05 19:34 48.34458 11.77501 1479 ft 8 kts 297°
2026-05-05 19:34 48.34533 11.77438 1480 ft 17 kts 349°
2026-05-05 19:34 48.34628 11.77464 1475 ft 13 kts 65°
2026-05-05 19:35 48.34662 11.77864 1485 ft 26 kts 83°
2026-05-05 19:35 48.34683 11.78150 1472 ft 28 kts 84°
2026-05-05 19:35 48.34705 11.78446 1485 ft 29 kts 83°
2026-05-05 19:35 48.34729 11.78745 1482 ft 29 kts 83°
2026-05-05 19:36 48.34752 11.79048 1479 ft 28 kts 83°
2026-05-05 19:36 48.34773 11.79326 1478 ft 26 kts 84°
2026-05-05 19:36 48.34791 11.79519 1483 ft 13 kts 70°
2026-05-05 19:36 48.34875 11.79555 1478 ft 13 kts 353°
2026-05-05 19:37 48.34897 11.79550 1485 ft 0 kts 353°
2026-05-05 19:37 48.34900 11.79550 1485 ft 2 kts 353°
2026-05-05 19:37 48.34925 11.79545 1475 ft 6 kts 353°
2026-05-05 19:37 48.34983 11.79535 1475 ft 10 kts 353°
2026-05-05 19:38 48.35065 11.79521 1485 ft 14 kts 353°
2026-05-05 19:38 48.35170 11.79503 1484 ft 16 kts 353°
2026-05-05 19:38 48.35283 11.79484 1485 ft 17 kts 353°
2026-05-05 19:38 48.35402 11.79463 1472 ft 18 kts 353°
2026-05-05 19:39 48.35523 11.79441 1478 ft 9 kts 353°
2026-05-05 19:39 48.35553 11.79374 1483 ft 9 kts 268°
2026-05-05 19:39 48.35546 11.79297 1485 ft 0 kts 263°